Location: Beekweide
(51.4153°N, 5.5475°E)
Time: 07:12:19
(UTC+00:00)

Daily predictions for brighter satellites

Satellite Brightness Start Highest point End
(mag) Time Altitude Azimuth Time Altitude Azimuth Time Altitude Azimuth
Cosmos 2344 4.5 16:28:58 10° NW 16:36:38 42° NNE 16:46:33 10° E
H-2A R/B 3.4 16:36:19 10° E 16:39:34 17° NE 16:42:51 10° NNE
Cosmos 773 Rocket 4.1 16:35:06 10° NNW 16:40:10 52° ENE 16:45:11 10° SE
Okean O Rocket 1.8 16:36:40 10° SE 16:40:58 52° ENE 16:45:17 10° N
SeaSat 1 3.0 16:36:30 10° NNE 16:41:20 57° NW 16:46:10 10° SW
YAOGAN 6 3.0 16:39:12 10° S 16:42:45 69° W 16:46:22 10° NNW
SMAP 3.0 16:38:20 10° SSE 16:42:58 71° ENE 16:47:37 10° N
Cosmos 1626 2.4 16:39:49 10° S 16:43:22 47° E 16:46:57 10° NNE
CZ-4B R/B 3.3 16:39:33 10° SSE 16:45:04 71° ENE 16:50:43 10° NNW
SL-24 R/B 4.2 16:41:14 10° SSE 16:45:33 64° ENE 16:50:12 10° N
Spot 2 4.4 16:42:12 10° SSE 16:46:51 77° WSW 16:51:14 10° NNW
Cosmos 1603 3.9 16:43:33 10° NNW 16:49:17 82° WSW 16:55:01 10° SSE
AQUARIUS 4.1 16:45:25 10° SSE 16:49:53 72° ENE 16:54:23 10° N
Meteor 2-10 Rocket 4.3 16:44:53 10° N 16:49:56 33° ENE 16:54:46 10° SE
PAYLOAD B 4.4 16:44:34 10° SSE 16:50:04 81° WSW 16:55:38 10° NNW
Cosmos 2297 Rocket 3.6 16:45:04 10° WSW 16:50:08 33° NW 16:55:15 10° NNE
OPS 8737 4.4 16:51:58 10° NW 16:54:57 56° NE 16:58:37 10° ESE
Cosmos 1606 Rocket 3.7 16:51:10 10° N 16:55:26 50° ENE 16:59:43 10° SSE
KORONAS-FOTON 4.4 16:52:20 10° SSW 16:56:13 63° WNW 17:00:08 10° N
H-2A R/B 2.3 16:53:00 10° NNE 16:57:24 51° E 17:01:40 10° S
CZ-2D R/B 4.1 16:54:24 10° SE 16:57:44 28° ENE 17:01:05 10° N
USA 234 3.6 16:53:27 10° ENE 16:59:48 55° N 17:06:10 10° WNW
YAOGAN 1 3.8 16:57:19 10° ESE 17:00:33 21° ENE 17:03:48 10° NNE
CZ-4C R/B 2.7 16:58:11 10° NNE 17:01:22 85° ESE 17:04:31 10° SSW
ATLAS 5 CENTAUR R/B 1.7 16:57:41 10° SSW 17:01:38 55° SE 17:06:05 10° NE
FengYun 1-2 T 4.2 16:57:03 10° SSE 17:02:37 79° ENE 17:08:16 10° NNW
Tsikada Rocket 4.2 16:57:47 10° SSW 17:04:07 82° W 17:10:25 10° N
NOAA 12 4.3 16:59:20 10° S 17:04:33 77° WSW 17:09:50 10° NNW
SL-14 R/B 3.2 17:02:00 10° S 17:05:50 65° E 17:09:44 10° NNE
Helios 1A Rocket 4.3 17:03:29 10° ESE 17:06:25 19° ENE 17:09:23 10° NNE
MOS 1 Rocket 4.3 17:03:13 10° NE 17:06:35 21° E 17:09:53 10° SE
ATLAS 3B R/B 3.9 17:00:25 10° NW 17:07:03 49° WSW 17:13:56 10° SSE
RESURS DK-1 2.4 17:03:03 10° SSW 17:07:12 86° NW 17:11:22 10° NNE
Cosmos 2228 2.9 17:03:12 10° N 17:07:28 71° ENE 17:11:44 10° SSE
Cosmos 2142 Rocket 4.4 17:03:15 10° N 17:09:27 74° ENE 17:15:35 10° SSE
NOSS 7 (E) 4.5 17:06:21 10° SSW 17:09:55 57° SE 17:12:25 14° NE
SKYMED 2 4.4 17:08:46 10° NNE 17:12:39 31° E 17:16:30 10° SSE
Cosmos 1538 Rocket 4.0 17:08:46 10° NNW 17:13:54 58° ENE 17:18:59 10° SE
Aureole 3 4.3 17:11:20 10° NNE 17:14:10 20° ENE 17:16:41 10° ESE
Meteor 2-5 Rocket 3.6 17:09:15 10° S 17:14:48 75° E 17:20:20 10° NNE
CZ-4C R/B 2.6 17:09:49 10° WSW 17:14:59 61° NW 17:21:18 10° NE
CZ-3B R/B 1.3 17:13:51 10° WNW 17:15:55 58° NNE 17:20:09 11° E
SJ 16-02 2.9 17:14:53 10° SE 17:17:43 17° E 17:18:57 15° ENE
Cosmos 1777 Rocket 4.4 17:15:51 10° S 17:20:48 43° ESE 17:25:48 10° NE
Cosmos 2263 Rocket 2.2 17:16:53 10° SSW 17:22:35 89° ESE 17:28:18 10° NNE
Cosmos 1455 3.0 17:21:32 10° N 17:24:53 28° ENE 17:28:13 10° SE
Cosmos 968 Rocket 4.4 17:20:25 10° SW 17:25:19 45° WNW 17:30:16 10° NNE
Cosmos 2058 Rocket 3.2 17:22:28 10° N 17:26:53 53° ENE 17:31:18 10° SSE
Cosmos 1354 Rocket 4.1 17:21:51 10° SSW 17:27:11 84° WNW 17:32:34 10° NNE
USA-17 4.5 17:25:22 10° SW 17:28:50 66° NW 17:30:58 18° NE
Cosmos 1300 3.3 17:25:25 10° NNW 17:29:11 59° W 17:32:56 10° S
COSMOS 2406 4.4 17:25:37 10° NNW 17:30:13 24° NE 17:32:43 18° ENE
Landsat 5 4.3 17:30:01 10° N 17:33:51 47° WNW 17:37:35 10° SW
GENESIS II 4.2 17:32:36 10° SW 17:36:38 86° NW 17:39:27 19° NE
ARGOS 3.7 17:34:03 10° SE 17:38:52 35° ENE 17:43:44 10° N
Lacrosse 5 1.8 17:35:18 10° WNW 17:40:24 90° NE 17:44:59 13° ESE
NOSS 3-1 (C) 4.1 17:33:36 10° NW 17:40:26 52° NNE 17:47:11 15° ESE
CREW DRAGON DEMO-1 DEB 2.7 17:37:43 10° W 17:40:38 78° SSW 17:41:52 30° ESE
Okean 1-7 Rocket 3.9 17:37:39 10° SSE 17:41:58 45° E 17:46:20 10° NNE
Cosmos 1726 Rocket 3.8 17:38:05 10° NNW 17:42:27 74° W 17:46:49 10° S
ERS-2 2.7 17:42:02 25° NE 17:43:25 34° E 17:46:45 10° SSE
ISS -1.8 17:42:30 10° S 17:44:38 16° SE 17:45:00 16° SE
CZ-2C R/B 4.1 17:45:49 19° ESE 17:45:49 19° ESE 17:48:46 10° SE
Cosmos 1939 Rocket 3.4 17:41:48 10° S 17:45:54 65° W 17:49:58 10° NNW
CSL-04 Debris 4.5 17:43:52 10° SE 17:48:55 43° ENE 17:53:59 10° N
Meteor 1-24 Rocket 3.7 17:43:36 10° SSW 17:48:56 76° WNW 17:54:16 10° N
COSMOS 2455 3.0 17:44:05 10° SSW 17:49:56 56° ESE 17:54:02 20° NE
Cosmos 1626 Rocket 4.2 17:49:21 10° SSE 17:53:15 32° E 17:54:01 30° ENE
Cosmos 1833 Rocket 3.7 17:48:45 10° NNW 17:53:29 26° NE 17:54:41 25° ENE
Cosmos 1844 4.3 17:50:06 10° S 17:55:07 34° ESE 17:57:10 26° ENE
Cosmos 2082 Rocket 3.6 17:51:00 10° NNW 17:55:11 20° NNE 17:55:56 20° NE
IRS-1C Rocket 4.1 17:51:28 10° SSE 17:56:44 88° WSW 18:02:02 10° NNW
USA 229 DEB 4.1 17:50:29 10° NW 17:57:24 50° NNE 18:01:49 24° E
USA 229 4.1 17:50:36 10° NW 17:57:29 50° NNE 18:01:52 24° E
USA 281 4.4 17:56:41 20° NE 17:58:03 21° NE 18:02:44 10° NNW
CZ-4 R/B 1.3 17:54:04 10° SSE 17:58:09 73° ENE 18:02:12 10° N
NOAA 15 4.5 17:54:20 10° SSE 17:59:33 71° ENE 18:04:49 10° NNW
COSMO-SKYMED 1 2.5 17:56:35 10° NNE 18:00:58 86° ESE 18:05:18 10° SSW
NOSS 3-4 (A) 4.5 17:56:58 10° W 18:02:36 38° NNW 18:07:06 17° NE
NOSS 3-4 (C) 4.5 17:57:06 10° W 18:02:45 38° NNW 18:07:15 17° NE
USA 267 4.5 18:04:12 20° ESE 18:05:04 20° SE 18:09:43 10° S
SL-08 RB Rocket 4.2 18:05:15 36° ENE 18:05:39 37° ENE 18:09:47 10° N
Ariane Rocket 4.4 18:10:03 20° NNE 18:10:03 20° NNE 18:12:29 10° N
Cosmos 2227 Rocket 4.4 18:07:22 10° WNW 18:11:00 17° NNW 18:14:38 10° NNE
CZ-4B R/B 2.0 18:08:14 13° N 18:11:08 55° WNW 18:14:24 10° SSW
NOSS 3-1 (A) 4.1 18:06:07 10° NW 18:12:58 53° NNE 18:16:57 29° E
Okean-O 2.6 18:09:52 10° SSE 18:14:18 87° W 18:18:46 10° NNW
Cosmos 923 Rocket 3.9 18:10:14 10° NNW 18:15:38 82° ENE 18:20:58 10° SSE
CZ-2C R/B 3.6 18:10:39 10° S 18:15:55 63° W 18:21:31 10° NNW
Cosmos 1844 Rocket 2.7 18:11:26 10° S 18:16:59 58° ESE 18:19:24 33° NE
Okean O Rocket 4.3 18:14:10 10° SW 18:17:37 22° W 18:21:03 10° NW
Cosmos 1689 Rocket 4.3 18:20:00 17° S 18:20:00 17° S 18:20:45 10° S
H-2A R/B 1.9 18:13:17 10° SSE 18:18:17 88° ENE 18:23:27 10° NNW
Meteor 1-21 Rocket 4.1 18:14:20 10° S 18:19:46 63° E 18:25:16 10° NNE
Aureole 2 Rocket 2.7 18:17:13 10° SSW 18:19:28 47° SSW 18:19:28 47° SSW
ATLAS 2AS CENTAUR R/B 3.8 18:12:46 10° W 18:20:20 45° NNW 18:25:30 20° NE
Cosmos 158 Rocket 4.0 18:15:41 10° NNW 18:21:02 85° WSW 18:26:26 10° SSE
Meteor 2-8 Rocket 4.4 18:15:21 10° N 18:21:23 60° ENE 18:27:24 10° SSE
Cosmos 1680 Rocket 3.4 18:17:45 10° NNW 18:23:02 74° ENE 18:26:36 21° SSE
SAR-Lupe-4 3.5 18:31:27 80° SW 18:31:27 80° SW 18:34:52 10° SSW
Cosmos 1627 Rocket 4.5 18:25:46 10° SSE 18:31:45 54° E 18:37:50 10° NNE
H-2A R/B 4.3 18:29:29 10° N 18:33:04 24° WNW 18:36:35 10° WSW
Cosmos 1602 Rocket 4.4 18:28:58 10° S 18:31:34 34° SSE 18:31:34 34° SSE
Cosmos 2098 Rocket 4.5 18:26:25 10° SSE 18:33:12 49° E 18:40:16 10° NNE
Cosmos 1818 3.5 18:28:26 10° SSW 18:33:47 65° SE 18:34:52 53° ENE
YAOGAN 1 3.2 18:32:03 10° S 18:36:19 56° W 18:40:36 10° NNW
CSL-04 Rocket 3.6 18:34:43 10° SSE 18:40:08 88° WSW 18:45:40 10° NNW
Helios 1A Rocket 3.4 18:37:06 10° S 18:41:12 59° WSW 18:45:19 10° NNW
USA 234 3.2 18:40:19 45° E 18:42:28 71° NNE 18:48:59 10° WNW
MOS 1 Rocket 4.0 18:40:57 10° N 18:45:08 47° WNW 18:49:14 10° SW
Iridium 4 Rocket 3.5 18:39:35 10° N 18:45:25 84° E 18:50:47 10° S
ATLAS 5 CENTAUR R/B 2.9 18:42:35 10° W 18:46:30 34° NNW 18:47:38 30° N
Cosmos 1092 Rocket 3.8 18:40:38 10° S 18:46:50 82° E 18:53:01 10° NNE
Cosmos 1812 Rocket 3.5 18:44:06 10° NNW 18:48:33 82° W 18:48:54 73° SSW
Meteor 2-15 Rocket 4.4 18:45:11 10° N 18:51:11 58° ENE 18:51:11 58° ENE
Cosmos 2344 4.2 18:43:42 10° NW 18:52:37 81° NE 18:59:35 29° SE
SL-24 R/B - RUBIN 2 4.5 18:46:08 10° SW 18:52:51 85° SE 18:54:50 50° NE
SJ 16-02 1.6 18:51:26 10° SSW 18:55:49 66° WNW 18:55:59 65° NW
Cosmos 1455 4.3 18:57:10 10° NNW 19:00:26 28° W 19:03:42 10° SSW
Cosmos 2112 Rocket 4.2 18:55:14 10° NNW 19:00:29 68° WSW 19:02:18 40° S
MetOp-A 4.4 19:04:29 54° N 19:04:29 54° N 19:08:41 10° NNW
CZ-4C R/B 3.7 18:59:41 10° WNW 19:04:45 30° N 19:06:30 27° NNE
Cosmos 2263 Rocket 4.1 19:02:40 10° W 19:07:16 25° NW 19:10:38 15° N
COSMOS 2406 3.3 19:09:35 10° NNW 19:14:49 72° N 19:14:49 72° N
ERS-2 4.3 19:16:37 23° WNW 19:16:49 24° WNW 19:19:45 10° WSW
ARGOS 4.2 19:13:59 10° S 19:19:03 43° W 19:24:12 10° NNW
ISS -0.6 19:17:37 10° WSW 19:17:58 12° WSW 19:17:58 12° WSW
Lacrosse 5 3.6 19:18:46 10° WNW 19:22:54 26° SW 19:24:15 23° SSW
CZ-2C R/B 3.3 19:27:19 48° SSW 19:27:19 48° SSW 19:31:18 10° SSW
NOSS 3-1 (C) 4.3 19:24:25 10° NW 19:31:43 64° SW 19:34:40 41° S
Cosmos 1553 Rocket 4.1 19:29:19 10° NNW 19:35:44 73° W 19:36:14 70° SW
COSMOS 2455 3.8 19:30:26 10° WSW 19:36:07 41° NW 19:37:13 38° NNW
Cosmos 1833 Rocket 3.4 19:32:25 10° NNW 19:36:25 48° NW 19:36:25 48° NW
Cosmos 1844 4.3 19:33:33 10° SW 19:39:05 52° NW 19:39:07 52° NW
Cosmos 2082 Rocket 3.4 19:34:39 10° NNW 19:37:47 33° NNW 19:37:47 33° NNW
Cosmos 2026 Rocket 4.5 19:35:25 10° SSW 19:41:25 56° WNW 19:47:32 10° N
USA 281 3.9 19:43:33 43° N 19:43:33 43° N 19:47:58 10° NNW
USA 229 DEB 4.1 19:41:33 10° NW 19:48:44 65° SW 19:49:18 63° SSW
USA 229 4.0 19:41:39 10° NW 19:48:49 65° SW 19:49:21 63° SSW
USA 267 4.1 19:51:34 37° SSW 19:51:34 37° SSW 19:55:29 10° SW
Cosmos 1844 Rocket 4.1 19:56:06 10° WSW 20:01:07 34° NW 20:01:07 34° NW
NOSS 3-1 (A) 4.3 19:57:00 10° NW 20:04:18 63° SW 20:04:26 63° SW
ATLAS 2AS CENTAUR R/B 4.1 20:06:15 10° WNW 20:12:56 33° N 20:12:56 33° N
USA 234 4.2 20:27:41 42° W 20:27:41 42° W 20:32:06 10° WNW
